TimeCST,TemperatureF,Dew PointF,Humidity,Sea Level PressureIn,VisibilityMPH,Wind Direction,Wind SpeedMPH,Gust SpeedMPH,PrecipitationIn,Events,Conditions,WindDirDegrees,DateUTC
12:15 AM,17.4,10.9,76,30.04,10.0,SSE,11.5,-,N/A,,Clear,160,2013-02-09 06:15:00
12:35 AM,17.1,10.6,76,30.04,10.0,SSE,10.4,-,N/A,,Clear,160,2013-02-09 06:35:00
12:55 AM,16.3,10.0,76,30.03,10.0,SSE,8.1,-,N/A,,Scattered Clouds,160,2013-02-09 06:55:00
1:15 AM,16.2,10.2,77,30.03,10.0,SSE,6.9,-,N/A,,Mostly Cloudy,160,2013-02-09 07:15:00
1:35 AM,16.0,10.2,78,30.02,10.0,SSE,6.9,-,N/A,,Mostly Cloudy,160,2013-02-09 07:35:00
1:55 AM,15.6,10.2,79,30.02,10.0,SSE,6.9,-,N/A,,Overcast,160,2013-02-09 07:55:00
2:15 AM,15.8,10.8,80,30.02,10.0,SSE,5.8,-,N/A,,Overcast,150,2013-02-09 08:15:00
2:35 AM,16.5,11.7,81,30.01,10.0,SSE,6.9,-,N/A,,Overcast,150,2013-02-09 08:35:00
2:55 AM,16.9,12.6,83,30.00,10.0,SSE,8.1,-,N/A,,Overcast,150,2013-02-09 08:55:00
3:15 AM,17.4,13.5,84,30.00,10.0,SSE,8.1,-,N/A,,Overcast,150,2013-02-09 09:15:00
3:35 AM,17.8,14.0,85,29.99,10.0,SSE,6.9,-,N/A,,Overcast,160,2013-02-09 09:35:00
3:55 AM,18.1,14.7,86,29.98,10.0,SSE,9.2,-,N/A,,Overcast,160,2013-02-09 09:55:00
4:15 AM,18.5,15.3,87,29.97,10.0,SSE,6.9,-,N/A,,Overcast,160,2013-02-09 10:15:00
4:35 AM,18.9,15.8,88,29.97,10.0,SSE,8.1,-,N/A,,Overcast,160,2013-02-09 10:35:00
4:55 AM,19.2,16.3,89,29.96,10.0,SSE,6.9,-,N/A,,Overcast,150,2013-02-09 10:55:00
5:15 AM,19.4,16.7,89,29.96,10.0,SSE,5.8,-,N/A,,Overcast,150,2013-02-09 11:15:00
5:35 AM,19.9,17.2,89,29.96,10.0,SSE,8.1,-,N/A,,Overcast,160,2013-02-09 11:35:00
5:55 AM,20.7,18.3,91,29.95,10.0,South,10.4,-,N/A,,Overcast,170,2013-02-09 11:55:00
6:15 AM,21.6,19.4,91,29.95,7.0,South,9.2,-,N/A,,Overcast,170,2013-02-09 12:15:00
6:35 AM,21.9,19.6,91,29.96,7.0,South,8.1,-,N/A,,Overcast,180,2013-02-09 12:35:00
6:55 AM,22.1,20.1,92,29.95,7.0,South,8.1,-,N/A,,Overcast,180,2013-02-09 12:55:00
7:15 AM,22.1,20.3,93,29.94,4.0,South,9.2,-,N/A,,Overcast,170,2013-02-09 13:15:00
7:35 AM,22.5,20.8,93,29.94,3.0,South,6.9,-,N/A,,Overcast,180,2013-02-09 13:35:00
7:55 AM,22.6,21.2,94,29.94,3.0,South,8.1,-,N/A,,Overcast,180,2013-02-09 13:55:00
8:15 AM,22.8,21.4,94,29.94,2.5,South,8.1,-,N/A,,Overcast,180,2013-02-09 14:15:00
8:35 AM,23.0,21.7,95,29.94,3.0,South,8.1,-,N/A,,Overcast,180,2013-02-09 14:35:00
8:55 AM,23.2,21.9,95,29.94,2.5,South,6.9,-,N/A,,Overcast,190,2013-02-09 14:55:00
9:15 AM,23.5,22.1,94,29.94,2.5,South,8.1,-,N/A,,Overcast,190,2013-02-09 15:15:00
9:35 AM,23.7,22.5,95,29.93,2.5,South,9.2,-,N/A,,Overcast,180,2013-02-09 15:35:00
9:55 AM,24.1,22.6,94,29.93,2.5,South,9.2,-,N/A,,Overcast,180,2013-02-09 15:55:00
10:15 AM,24.6,23.0,94,29.92,2.5,South,8.1,-,N/A,,Overcast,190,2013-02-09 16:15:00
10:35 AM,24.8,23.2,94,29.92,2.5,South,8.1,-,N/A,,Overcast,190,2013-02-09 16:35:00
10:55 AM,25.3,23.5,93,29.93,3.0,South,9.2,-,N/A,,Overcast,180,2013-02-09 16:55:00
11:15 AM,25.5,23.7,93,29.93,3.0,South,8.1,-,N/A,,Overcast,190,2013-02-09 17:15:00
11:35 AM,25.7,23.9,93,29.93,3.0,South,10.4,-,N/A,,Overcast,180,2013-02-09 17:35:00
11:55 AM,25.9,23.9,92,29.92,3.0,South,8.1,-,N/A,,Overcast,180,2013-02-09 17:55:00
12:15 PM,26.1,23.9,92,29.91,4.0,SSW,10.4,-,N/A,,Overcast,200,2013-02-09 18:15:00
12:35 PM,26.2,23.9,91,29.91,4.0,South,9.2,-,N/A,,Overcast,180,2013-02-09 18:35:00
12:55 PM,26.2,24.1,92,29.91,4.0,South,9.2,-,N/A,,Overcast,180,2013-02-09 18:55:00
1:15 PM,26.4,24.4,92,29.90,3.0,South,6.9,-,N/A,,Overcast,180,2013-02-09 19:15:00
1:55 PM,26.6,24.8,93,29.89,3.0,SSW,8.1,-,N/A,,Overcast,200,2013-02-09 19:55:00
2:15 PM,26.8,24.8,92,29.88,4.0,SSW,8.1,-,N/A,,Overcast,200,2013-02-09 20:15:00
2:35 PM,27.0,24.8,92,29.88,4.0,South,8.1,-,N/A,,Overcast,180,2013-02-09 20:35:00
2:55 PM,27.1,24.8,91,29.88,4.0,South,5.8,-,N/A,,Overcast,180,2013-02-09 20:55:00
3:15 PM,27.1,25.0,92,29.88,4.0,South,5.8,-,N/A,,Overcast,170,2013-02-09 21:15:00
3:35 PM,27.0,25.0,92,29.88,4.0,South,6.9,-,N/A,,Overcast,190,2013-02-09 21:35:00
3:55 PM,27.0,25.2,93,29.88,4.0,SSE,6.9,-,N/A,,Overcast,160,2013-02-09 21:55:00
4:15 PM,27.0,25.2,93,29.88,4.0,South,8.1,-,N/A,,Overcast,180,2013-02-09 22:15:00
4:35 PM,26.6,25.2,94,29.88,3.0,South,5.8,-,N/A,,Overcast,170,2013-02-09 22:35:00
4:55 PM,26.6,25.3,95,29.88,2.5,South,4.6,-,N/A,,Overcast,170,2013-02-09 22:55:00
5:15 PM,26.6,25.3,95,29.89,2.5,SSE,5.8,-,N/A,,Overcast,160,2013-02-09 23:15:00
5:35 PM,26.4,25.3,96,29.89,2.5,SSE,6.9,-,N/A,,Overcast,160,2013-02-09 23:35:00
5:55 PM,26.4,25.3,96,29.90,2.0,SSE,5.8,-,N/A,,Overcast,160,2013-02-09 23:55:00
6:15 PM,26.4,25.3,96,29.90,4.0,SSE,4.6,-,N/A,,Overcast,150,2013-02-10 00:15:00
6:35 PM,26.2,25.3,96,29.89,3.0,SSE,4.6,-,N/A,,Overcast,150,2013-02-10 00:35:00
6:55 PM,26.1,25.3,97,29.89,3.0,SSE,5.8,-,N/A,,Overcast,150,2013-02-10 00:55:00
7:15 PM,26.1,25.3,97,29.89,3.0,SSE,5.8,-,N/A,,Overcast,150,2013-02-10 01:15:00
7:35 PM,26.1,25.3,97,29.89,3.0,SE,5.8,-,N/A,,Overcast,140,2013-02-10 01:35:00
7:55 PM,26.1,25.3,97,29.89,3.0,SE,6.9,-,N/A,,Overcast,140,2013-02-10 01:55:00
8:15 PM,25.9,25.3,98,29.89,2.5,SE,8.1,-,N/A,,Overcast,140,2013-02-10 02:15:00
8:35 PM,25.9,25.3,98,29.89,2.5,SE,8.1,-,N/A,,Overcast,140,2013-02-10 02:35:00
8:55 PM,25.9,25.3,98,29.89,3.0,SE,6.9,-,N/A,,Overcast,140,2013-02-10 02:55:00
9:15 PM,26.1,25.3,97,29.88,4.0,SE,5.8,-,N/A,,Overcast,140,2013-02-10 03:15:00
9:35 PM,26.1,25.2,96,29.89,5.0,SSE,5.8,-,N/A,,Overcast,150,2013-02-10 03:35:00
9:55 PM,26.1,25.0,96,29.89,5.0,SSE,5.8,-,N/A,,Overcast,150,2013-02-10 03:55:00
10:15 PM,26.1,25.0,96,29.88,5.0,SE,3.5,-,N/A,,Overcast,140,2013-02-10 04:15:00
10:35 PM,26.1,24.8,95,29.89,5.0,SSE,5.8,-,N/A,,Overcast,150,2013-02-10 04:35:00
10:55 PM,26.1,24.8,95,29.88,5.0,SE,6.9,-,N/A,,Overcast,140,2013-02-10 04:55:00
11:15 PM,26.1,24.8,95,29.87,5.0,ESE,5.8,-,N/A,,Overcast,120,2013-02-10 05:15:00
11:35 PM,25.9,24.8,96,29.88,4.0,ESE,5.8,-,N/A,,Overcast,120,2013-02-10 05:35:00
11:55 PM,25.9,24.8,96,29.88,4.0,ESE,6.9,-,N/A,,Overcast,120,2013-02-10 05:55:00